Weather History for Cut Bank, MT

Change the Weather History Date:

Tuesday, October 1, 2013

  Actual Average Record
Temperature  
Mean Temperature 46 °F 48 °F  
Max Temperature 55 °F 62 °F 88 °F (1992)
Min Temperature 37 °F 35 °F 14 °F (1950)
Degree Days  
Heating Degree Days 19 17  
Month to date heating degree days 19 17  
Since 1 July heating degree days 314 554  
Cooling Degree Days 0 0  
Month to date cooling degree days 0 0  
Year to date cooling degree days 226 161  
Moisture  
Dew Point 28 °F    
Average Humidity 49    
Maximum Humidity 70    
Minimum Humidity 28    
Precipitation  
Precipitation 0.00 in 0.03 in 0.51 in (1966)
Month to date precipitation 0.00 0.03  
Year to date precipitation 13.31 9.91  
Snow  
Snow 0.00 in - - ()
Snow Depth 0.00 in    
Sea Level Pressure  
Sea Level Pressure 29.85 in    
Wind  
Wind Speed 21 mph (WSW)    
Max Wind Speed 41 mph    
Max Gust Speed 49 mph    
Visibility 10 miles    
Events      
T = Trace of Precipitation, MM = Missing Value Source: NWS Daily Summary

Daily Weather History Graph

Daily Weather History Graph

Search for Another Location

Airport:

Trip Planner

Search our weather history database for the weather conditions in past years. The results will help you decide how hot, cold, wet, or windy it might be!

Date:

Astronomy

Oct. 01, 2013 Rise Set
Actual Time 7:29 AM MDT 7:07 PM MDT
Civil Twilight 6:58 AM MDT 7:38 PM MDT
Nautical Twilight 6:21 AM MDT 8:15 PM MDT
Astronomical Twilight 5:44 AM MDT 8:52 PM MDT
Moon 3:53 AM MDT (10/1) 5:24 PM MDT (10/1)
Length of Visible Light 12h 40m
Length of Day
11h 38m
Waning Crescent, 11% of the Moon is Illuminated
Oct 1
Waning Crescent
Oct 4
New
Oct 11
First Quarter
Oct 18
Full
Oct 26
Last Quarter

Hourly Weather History & Observations

Time (MDT) Temp. Windchill Dew Point Humidity Pressure Visibility Wind Dir Wind Speed Gust Speed Precip Events Conditions
12:56 AM 43.0 °F 34.0 °F 32.0 °F 65% 29.74 in 10.0 mi West 21.9 mph 31.1 mph N/A   Clear
1:56 AM 43.0 °F 33.5 °F 30.9 °F 62% 29.76 in 10.0 mi West 24.2 mph 32.2 mph N/A   Clear
2:56 AM 39.9 °F 31.8 °F 30.9 °F 70% 29.77 in 10.0 mi West 15.0 mph - N/A   Clear
3:56 AM 43.0 °F 35.7 °F 30.0 °F 60% 29.77 in 10.0 mi West 15.0 mph 26.5 mph N/A   Clear
4:56 AM 41.0 °F 31.9 °F 30.0 °F 65% 29.78 in 10.0 mi WSW 19.6 mph - N/A   Clear
5:56 AM 37.9 °F 29.6 °F 28.0 °F 68% 29.82 in 10.0 mi WSW 13.8 mph - N/A   Clear
6:56 AM 39.9 °F 31.1 °F 30.0 °F 68% 29.82 in 10.0 mi WSW 17.3 mph - N/A   Clear
7:56 AM 37.9 °F 31.5 °F 28.0 °F 68% 29.83 in 10.0 mi WSW 9.2 mph - N/A   Clear
8:56 AM 45.0 °F 37.1 °F 28.0 °F 52% 29.83 in 10.0 mi WSW 19.6 mph 26.5 mph N/A   Clear
9:56 AM 48.9 °F - 25.0 °F 39% 29.82 in 10.0 mi WSW 26.5 mph 36.8 mph N/A   Clear
10:56 AM 50.0 °F - 27.0 °F 41% 29.81 in 10.0 mi WSW 32.2 mph 44.9 mph N/A   Clear
11:56 AM 53.1 °F - 26.1 °F 35% 29.79 in 10.0 mi WSW 34.5 mph 47.2 mph N/A   Clear
12:56 PM 51.1 °F - 30.0 °F 44% 29.83 in 10.0 mi West 38.0 mph 47.2 mph N/A   Clear
1:56 PM 53.1 °F - 24.1 °F 32% 29.83 in 10.0 mi West 33.4 mph 44.9 mph N/A   Clear
2:56 PM 53.1 °F - 21.9 °F 30% 29.84 in 10.0 mi West 29.9 mph 41.4 mph N/A   Clear
3:56 PM 53.1 °F - 25.0 °F 34% 29.85 in 10.0 mi WSW 29.9 mph 38.0 mph N/A   Clear
4:56 PM 51.1 °F - 23.0 °F 33% 29.87 in 10.0 mi West 27.6 mph 34.5 mph N/A   Clear
5:56 PM 48.9 °F - 26.1 °F 41% 29.90 in 10.0 mi WSW 27.6 mph 35.7 mph N/A   Clear
6:56 PM 43.0 °F 34.0 °F 28.9 °F 58% 29.93 in 10.0 mi West 21.9 mph 28.8 mph N/A   Clear
7:56 PM 39.0 °F 31.0 °F 30.0 °F 70% 29.96 in 10.0 mi WSW 13.8 mph - N/A   Clear
8:56 PM 37.9 °F 32.1 °F 28.9 °F 70% 29.97 in 10.0 mi West 8.1 mph - N/A   Clear
9:56 PM 39.0 °F 31.0 °F 28.0 °F 65% 29.96 in 10.0 mi WSW 13.8 mph - N/A   Clear
10:56 PM 37.9 °F 29.6 °F 28.9 °F 70% 29.97 in 10.0 mi West 13.8 mph - N/A   Clear
11:56 PM 39.9 °F 32.5 °F 30.0 °F 68% 29.97 in 10.0 mi West 12.7 mph - N/A   Clear